Flight Track Log - Related Links

Times and Time Zones

All times are in EDT time to prevent confusion due to time zone crossing. See the N5RD flight status page for this flight to view local times or setup timezone preferences in your user account.

Time Position Orientation Groundspeed Altitude Reporting Facility
EDT Latitude Longitude Course Direction KTS MPH feet Rate Location/Type
06:59PM 29.9989 -90.2458 12° North 147 169 700  Level Houston Center
06:59PM 30.0200 -90.2406 12° North 137 158 2,500 3,537 Climbing Houston Center
07:01PM 30.0714 -90.2194 20° North 194 223 6,300 3,968 Climbing Houston Center
07:02PM 30.0928 -90.2575 303° West 225 259 10,700 3,000 Climbing Houston Center
07:03PM 30.0294 -90.3233 222° Southwest 294 338 12,500 2,419 Climbing Houston Center
07:04PM 29.9572 -90.4067 225° Southwest 363 418 15,700 3,216 Climbing Houston Center
07:05PM 29.8869 -90.4889 225° Southwest 363 418 19,200 2,928 Climbing Houston Center
07:06PM 29.8031 -90.5917 227° Southwest 369 425 21,800 2,187 Climbing Houston Center
07:11PM 29.5864 -91.2304 253° West 365 420 34,000 1,978 Climbing FlightAware ADS-B (KHOU)
07:12PM 29.5725 -91.2813 253° West 363 418 34,000  Level FlightAware ADS-B (KHOU)
07:14PM 29.5197 -91.4745 253° West 366 421 34,000  Level FlightAware ADS-B (KHOU)
07:14PM 29.5132 -91.4982 253° West 365 420 34,000  Level FlightAware ADS-B (KHOU)
07:15PM 29.4767 -91.6713 267° West 360 414 34,000  Level FlightAware ADS-B (KHOU)
07:16PM 29.4725 -91.7358 266° West 362 417 34,000  Level FlightAware ADS-B (KHOU)
07:16PM 29.4710 -91.7588 266° West 362 417 34,000  Level FlightAware ADS-B (KHOU)
07:17PM 29.4614 -91.9045 266° West 362 417 34,000  Level FlightAware ADS-B (KHOU)
07:18PM 29.4605 -91.9190 266° West 362 417 34,000  Level FlightAware ADS-B (KHOU)
07:18PM 29.4539 -92.0193 266° West 362 417 34,000  Level FlightAware ADS-B (KHOU)
07:19PM 29.4472 -92.1205 266° West 363 418 34,000  Level FlightAware ADS-B (KHOU)
07:20PM 29.4421 -92.1961 266° West 365 420 34,000  Level FlightAware ADS-B (KHOU)
07:20PM 29.4382 -92.2528 266° West 365 420 34,000  Level FlightAware ADS-B (KHOU)
07:21PM 29.4346 -92.3063 266° West 364 419 34,000  Level FlightAware ADS-B (KHOU)
07:21PM 29.4303 -92.3684 266° West 363 418 34,000  Level FlightAware ADS-B (KHOU)
07:22PM 29.4266 -92.4220 266° West 363 418 34,000  Level FlightAware ADS-B (KHOU)
07:22PM 29.4223 -92.4838 266° West 363 418 34,000  Level FlightAware ADS-B (KHOU)
07:23PM 29.4206 -92.5079 266° West 364 419 34,000  Level FlightAware ADS-B (KHOU)
07:23PM 29.4142 -92.5990 266° West 364 419 34,000  Level FlightAware ADS-B (KHOU)
07:24PM 29.4101 -92.6568 266° West 366 421 34,000  Level FlightAware ADS-B (KHOU)
07:24PM 29.4060 -92.7153 266° West 368 423 34,000  Level FlightAware ADS-B (KHOU)
07:25PM 29.4019 -92.7738 266° West 371 427 34,000  Level FlightAware ADS-B (KHOU)
07:25PM 29.3984 -92.8252 266° West 372 428 34,000  Level FlightAware ADS-B (KHOU)
07:26PM 29.3938 -92.8879 266° West 370 426 34,000  Level FlightAware ADS-B (KHOU)
07:26PM 29.3895 -92.9470 265° West 367 422 34,000  Level FlightAware ADS-B (KHOU)
07:27PM 29.3854 -93.0038 265° West 366 421 34,000  Level FlightAware ADS-B (KHOU)
07:27PM 29.3810 -93.0618 266° West 367 422 34,000  Level FlightAware ADS-B (KHOU)
07:28PM 29.3767 -93.1204 265° West 368 423 34,000  Level FlightAware ADS-B (KHOU)
07:28PM 29.3721 -93.1819 266° West 369 425 34,000  Level FlightAware ADS-B (KHOU)
07:29PM 29.3680 -93.2389 266° West 369 425 34,000 -1,082 Level FlightAware ADS-B (KHOU)
07:29PM 29.3637 -93.2946 265° West 363 418 32,900 -3,541 Descending FlightAware ADS-B (KHOU)
07:30PM 29.3590 -93.3535 265° West 378 435 30,400 -4,881 Descending FlightAware ADS-B (KHOU)
07:30PM 29.3540 -93.4184 265° West 388 447 28,100 -4,169 Descending FlightAware ADS-B (KHOU)
07:31PM 29.3491 -93.4791 265° West 383 441 26,300 -3,400 Descending FlightAware ADS-B (KHOU)
07:31PM 29.3447 -93.5369 266° West 372 428 24,700 -2,262 Descending FlightAware ADS-B (KHOU)
07:32PM 29.3403 -93.5963 266° West 365 420 24,000 -689 Descending FlightAware ADS-B (KHOU)
07:32PM 29.3360 -93.6532 265° West 365 420 24,000  Level FlightAware ADS-B (KHOU)
07:33PM 29.3311 -93.7129 265° West 366 421 24,000  Level FlightAware ADS-B (KHOU)
07:33PM 29.3263 -93.7710 265° West 366 421 24,000  Level FlightAware ADS-B (KHOU)
07:34PM 29.3221 -93.8256 265° West 366 421 24,000 -900 Level FlightAware ADS-B (KHOU)
07:34PM 29.3172 -93.8874 265° West 367 422 23,100 -1,967 Descending FlightAware ADS-B (KHOU)
07:35PM 29.3123 -93.9459 265° West 361 415 22,000 -2,200 Descending FlightAware ADS-B (KHOU)
07:35PM 29.3078 -93.9999 266° West 357 411 20,900 -2,200 Descending FlightAware ADS-B (KHOU)
07:36PM 29.3034 -94.0595 265° West 362 417 19,800 -2,200 Descending FlightAware ADS-B (KHOU)
07:36PM 29.2985 -94.1170 265° West 367 422 18,700 -2,200 Descending FlightAware ADS-B (KHOU)
07:37PM 29.2937 -94.1751 265° West 368 423 17,600 -2,100 Descending FlightAware ADS-B (KHOU)
07:37PM 29.2890 -94.2305 265° West 364 419 16,600 -2,100 Descending FlightAware ADS-B (KHOU)
07:38PM 29.2839 -94.2894 265° West 345 397 15,500 -2,200 Descending FlightAware ADS-B (KHOU)
07:38PM 29.2806 -94.3324 265° West 350 403 14,400 -2,063 Descending FlightAware ADS-B (KHOU)
07:39PM 29.2750 -94.4013 265° West 349 402 13,300 -1,562 Descending FlightAware ADS-B (KHOU)
07:39PM 29.2747 -94.4628 265° West 315 362 12,500 -1,065 Descending Houston Center
07:40PM 29.2806 -94.4936 282° West 313 360 12,200 -1,967 Descending Houston Center
07:40PM 29.3011 -94.5578 290° West 304 350 10,500 -1,839 Descending Houston Center
07:41PM 29.3164 -94.5825 305° West 309 356 10,300 -197 Descending Houston Center
07:41PM 29.3431 -94.6433 297° West 307 353 10,300  Level Houston Center
07:42PM 29.3581 -94.6675 305° West 308 354 10,300 -358 Level Houston Center
07:43PM 29.3897 -94.7358 298° West 269 310 9,900 -581 Descending Houston Center
07:43PM 29.3964 -94.7458 307° West 284 327 9,700 -609 Descending Houston Center
07:49PM 29.5885 -95.1813 247° West 251 289 6,000 -580 Descending FlightAware ADS-B (KHOU)
07:49PM 29.5781 -95.2034 241° Southwest 227 261 6,000  Level FlightAware ADS-B (KHOU)
07:50PM 29.5683 -95.2242 242° Southwest 227 261 6,000  Level FlightAware ADS-B (KHOU)
07:50PM 29.5597 -95.2398 232° Southwest 226 260 6,000  Level FlightAware ADS-B (KHOU)
07:50PM 29.5484 -95.2530 224° Southwest 225 259 6,000 -200 Level FlightAware ADS-B (KHOU)
07:50PM 29.5373 -95.2650 224° Southwest 220 253 5,900 -600 Descending FlightAware ADS-B (KHOU)
07:51PM 29.5264 -95.2770 225° Southwest 220 253 5,700 -1,400 Descending FlightAware ADS-B (KHOU)
07:51PM 29.5151 -95.2896 225° Southwest 227 261 5,200 -2,069 Descending FlightAware ADS-B (KHOU)
07:51PM 29.5034 -95.3023 224° Southwest 235 270 4,700 -1,800 Descending FlightAware ADS-B (KHOU)
07:51PM 29.4913 -95.3155 224° Southwest 237 273 4,300 -1,355 Descending FlightAware ADS-B (KHOU)
07:52PM 29.4796 -95.3287 228° Southwest 235 270 4,000 -900 Descending FlightAware ADS-B (KHOU)
07:52PM 29.4764 -95.3338 240° Southwest 233 268 4,000  Level FlightAware ADS-B (KHOU)
07:52PM 29.4743 -95.3395 252° West 232 267 4,000  Level FlightAware ADS-B (KHOU)
07:52PM 29.4733 -95.3450 264° West 231 266 4,000  Level FlightAware ADS-B (KHOU)
07:52PM 29.4733 -95.3519 273° West 231 266 4,000  Level FlightAware ADS-B (KHOU)
07:52PM 29.4745 -95.3575 288° West 229 264 4,000  Level FlightAware ADS-B (KHOU)
07:52PM 29.4765 -95.3629 295° West 227 261 4,000  Level FlightAware ADS-B (KHOU)
07:53PM 29.4866 -95.3837 301° West 222 255 4,000 -167 Level FlightAware ADS-B (KHOU)
07:53PM 29.4958 -95.3976 321° Northwest 215 247 3,900 -316 Descending FlightAware ADS-B (KHOU)
07:53PM 29.4999 -95.4006 331° Northwest 212 244 3,900 -600 Level FlightAware ADS-B (KHOU)
07:53PM 29.5047 -95.4025 346° North 210 242 3,800 -1,429 Descending FlightAware ADS-B (KHOU)
07:53PM 29.5181 -95.4019 North 208 239 3,400 -1,500 Descending FlightAware ADS-B (KHOU)
07:53PM 29.5237 -95.4005 15° North 209 241 3,300 -1,286 Descending FlightAware ADS-B (KHOU)
07:53PM 29.5328 -95.3965 26° Northeast 207 238 3,100 -1,200 Descending FlightAware ADS-B (KHOU)
07:54PM 29.5368 -95.3936 32° Northeast 205 236 3,000 -1,429 Descending FlightAware ADS-B (KHOU)
07:54PM 29.5483 -95.3839 37° Northeast 202 232 2,600 -1,800 Descending FlightAware ADS-B (KHOU)
07:54PM 29.5593 -95.3734 40° Northeast 207 238 2,100 -1,400 Descending FlightAware ADS-B (KHOU)
07:54PM 29.5697 -95.3627 42° Northeast 196 226 1,900 -1,241 Descending FlightAware ADS-B (KHOU)
07:54PM 29.5795 -95.3520 45° Northeast 188 216 1,500 -1,000 Descending FlightAware ADS-B (KHOU)
07:55PM 29.5880 -95.3420 45° Northeast 166 191 1,400 -774 Descending FlightAware ADS-B (KHOU)
07:55PM 29.5958 -95.3332 43° Northeast 157 181 1,100 -1,000 Descending FlightAware ADS-B (KHOU)
07:55PM 29.6037 -95.3246 43° Northeast 153 176 900 -800 Descending FlightAware ADS-B (KHOU)
07:56PM 29.6111 -95.3164 44° Northeast 144 166 700 -800 Descending FlightAware ADS-B (KHOU)
07:56PM 29.6181 -95.3087 44° Northeast 139 160 500 -1,000 Descending FlightAware ADS-B (KHOU)
07:56PM 29.6249 -95.3012 44° Northeast 132 152 200 -1,200 Descending FlightAware ADS-B (KHOU)

Login

Don't have an account? Register now (free) for customized features, flight alerts, and more!